Location: Baumgarten
(49.0970°N, 12.7493°E)
Time: 03:00:09
(UTC+00:00)

Cosmos 371 Rocket - Pass Details

Date: 05 July 2020
Orbit: 684 x 699 km, 74.0° (Epoch: 04 August)

Event Time Altitude Azimuth Distance (km) Brightness Sun altitude
Rises 23:42:21 0° 328° (NNW) 3,084 7.5 -18.0°
Reaches altitude 10° 23:44:56 10° 317° (NW) 2,160 6.4 -17.9°
Maximum altitude 23:49:03 28° 259° (W) 1,285 4.5 -17.8°
Enters shadow 23:50:24 24° 231° (SW) 1,402 4.5 -17.8°
